Showing default

PARUS-6U1, 68456

Orbit data source: Space-Track

PARUS-6U1, 68456 is a Taiwanese payload satellite in SSO that was launched on Mon, 30 Mar 2026 UTC via an FALCON 9 launch vehicle from the Air Force Western Test Range (AFWTR). Payload-class satellites include a variety of spacecraft equipped with specific instruments for various scientific and technological missions. These include communications satellites like Starlink; space stations such as the ISS; scientific satellites like the Hubble; Earth observation satellites from companies like Planet Labs, Umbra, and HawkEye 360; GPS; miniature CubeSats for education and research; and military/defense satellites.

Loading next visibility...
Identifier
68456, 2026-067AS
Orbit
SSO
Country
Flag of TWTW / TWN
Related business
Manufacturer
TAIPT
Mission
Operational Civil Technology
Bus & Motor
CUBESAT 6U, Unknown motor
Mass
~10 kg wet, ~10 kg dry
Launch date (UTC)
2026-03-30 (4 months ago)
Launch vehicle
FALCON 9
Launch site
Air Force Western Test Range (AFWTR)
Object type
Payload
Rocket body
Debris
Shape & HBR
Box, 0.1 m
Radar Cross Section
0.035 m², Medium (>0.1 m² and < 1m²)

Expand to show TLE details & history
Last TLE update: 14 hours ago

TLE from 14 hours ago
0 PARUS-6U1
1 68456U 26067AS  26202.07730414  .00003908  00000-0  19647-3 0  9998
2 68456  97.4570 159.9311 0004144 324.4252  35.6706 15.17831819 17073
Epoch: 2026-07-21T01:51Z
TLE epoch observation values (Epoch: 2026-07-21T01:51:19.077Z)
Latitude
0.00006°
Longitude
-166.75057°
Altitude
513.161 km
Speed
7.608 km/s
True Right ascension
10h 39m 43s
True Declination
0° 00' 00"
Sunlit
Object was in daylight at epoch
Visualization orbit readout
Latitude
Unknown
Longitude
Unknown
Altitude
Unknown
Speed
Unknown
Apparent Right ascension
Unknown
Apparent Declination
Unknown
Sunlit
N/A
Visualization observer readout
Local Sidereal Time
05:07:39
Azimuth
Unknown
Elevation
Unknown
Doppler factor
Unknown
Orbital elements
Apogee altitude
512.22 km
Perigee altitude
506.511 km
Semi-major axis
6,887.503 km
Eccentricity
0.00041
Inclination
97.457°
RAAN
159.9311°
Arg. of periapsis
324.4252°
True anomaly
35.6983°
Mean anomaly
35.6706°
Eccentric anomaly
35.68445°
Mean motion
3.79709 °/min
Orbital period
94.81 mins
BSTAR
0.00019647
Loading maneuver chart data...
Computing Atmospheric mass density...
Loading historical data...
Loading historical data...
Loading historical data...
Loading historical data...
Loading historical data...
Loading historical data...
Loading historical data...

Documentation

Showing up to 5 results
|